OSCAR 3 (OSCAR III) 1 01293U 65016F 10244.41650855 .00000067 00000-0 75047-4 0 8841 2 01293 70.0761 297.7654 0020231 297.9895 61.9203 14.04803855321774 OSCAR 5 (AO-5) 1 04321U 70008B 10244.07263004 -.00000031 00000-0 10000-3 0 3643 2 04321 102.1065 268.1884 0027433 226.1913 133.6881 12.52160347855949 OSCAR 6 (AO-6) 1 06236U 72082B 10244.02160772 -.00000027 00000-0 10000-3 0 3541 2 06236 101.3948 244.5278 0004074 101.8235 258.3291 12.53082406732623 OSCAR 7 (AO-7) 1 07530U 74089B 10245.05609646 -.00000027 00000-0 10000-3 0 8679 2 07530 101.4007 257.9394 0011987 122.3074 237.9155 12.53579459638081 OSCAR 8 (AO-8) 1 10703U 78026B 10244.08993745 .00000111 00000-0 10617-3 0 9261 2 10703 98.7699 276.6799 0007300 33.5541 326.6100 13.98867371657669 PHASE 3B (AO-10) 1 14129U 83058B 10238.82719229 -.00000064 00000-0 10000-3 0 7639 2 14129 26.5957 77.9040 6048485 352.8694 1.4583 2.05870103176621 UOSAT 2 (UO-11) 1 14781U 84021B 10244.36173042 -.00000258 00000-0 -27073-4 0 3289 2 14781 98.0490 296.3049 0009253 359.5531 0.5666 14.79828064423074 JAS-1 (FO-12) 1 16909U 86061B 10243.42911909 -.00000083 00000-0 10000-3 0 7737 2 16909 50.0151 248.4842 0010947 244.6504 115.3192 12.44454228 93793 UOSAT 3 (UO-14) 1 20437U 90005B 10244.29835174 .00000034 00000-0 28715-4 0 2997 2 20437 98.3966 191.8326 0009738 303.7195 56.3085 14.31583105 76162 UOSAT 4 (UO-15) 1 20438U 90005C 10244.01429359 -.00000004 00000-0 14843-4 0 7981 2 20438 98.4504 186.7070 0009591 341.1518 18.9306 14.30473992 75499 PACSAT (AO-16) 1 20439U 90005D 10244.42699346 -.00000000 00000-0 15492-4 0 9835 2 20439 98.3388 199.3600 0010278 304.6851 55.3372 14.31871903 76298 DOVE (DO-17) 1 20440U 90005E 10244.82316348 .00000003 00000-0 16575-4 0 7023 2 20440 98.3146 203.3668 0010066 295.3250 64.6895 14.32178389 76502 WEBERSAT (WO-18) 1 20441U 90005F 10244.82941742 .00000008 00000-0 18446-4 0 2092 2 20441 98.3211 202.2547 0010984 301.6119 58.4001 14.31939577 76428 LUSAT (LO-19) 1 20442U 90005G 10244.41249181 -.00000133 00000-0 -34031-4 0 8923 2 20442 98.2997 204.8408 0011045 298.3539 61.6525 14.32101453 76466 JAS-1B (FO-20) 1 20480U 90013C 10244.66041160 -.00000034 00000-0 31594-5 0 5511 2 20480 99.0209 87.6038 0539560 250.5902 103.6141 12.83365307963538 INFORMATOR 1 & RS-14 1 21087U 91006A 10244.71304795 .00000023 00000-0 77422-5 0 6798 2 21087 82.9373 78.9755 0036186 130.3967 230.0357 13.75058706983097 COSMOS 2123 & RS-12/13 1 21089U 91007A 10244.25532332 .00000033 00000-0 18319-4 0 5610 2 21089 82.9239 299.3041 0028936 177.6706 182.4586 13.74495948981786 UOSAT 5 (UO-22) 1 21575U 91050B 10244.71065798 .00000015 00000-0 18829-4 0 9223 2 21575 98.4991 193.8771 0008120 132.2245 227.9637 14.39731100 4232 KITSAT 1 (KO-23) 1 22077U 92052B 10243.77684181 -.00000037 00000-0 10000-3 0 545 2 22077 66.0846 123.8979 0000594 118.2232 241.8848 12.86454189848199 ARSENE (AO-24) 1 22654U 93031B 10242.85898523 -.00000118 00000-0 10000-3 0 4015 2 22654 4.6903 328.5873 2848511 187.0249 167.9607 1.42205628 85378 EYESAT-1 (AO-27) 1 22825U 93061C 10244.38775327 -.00000099 00000-0 -22006-4 0 6150 2 22825 98.4910 190.3869 0009206 48.4122 311.7866 14.29305777882933 ITAMSAT (IO-26) 1 22826U 93061D 10244.01960285 .00000015 00000-0 22604-4 0 3539 2 22826 98.4850 190.6012 0009737 45.0904 315.1071 14.29563358882993 KITSAT 2 (KO-25) 1 22828U 93061F 10244.87215024 .00000057 00000-0 38767-4 0 5523 2 22828 98.4779 191.2320 0010292 17.3133 342.8400 14.29856975851403 POSAT (PO-28) 1 22829U 93061G 10244.45298600 -.00000043 00000-0 50774-8 0 5699 2 22829 98.4749 192.0041 0009976 14.5136 345.6336 14.30256434883375 RADIO ROSTO (RS-15) 1 23439U 94085A 10243.59872185 -.00000039 00000-0 10000-3 0 3229 2 23439 64.8183 272.6024 0161667 330.7170 28.4766 11.27554365645775 JAS-2 (FO-29) 1 24278U 96046B 10245.16143721 -.00000070 00000-0 -32465-4 0 3868 2 24278 98.5170 63.6583 0349819 284.2492 72.0037 13.52951680693514 UNAMSAT-2 (MO-30) 1 24305U 96052B 10244.89957574 .00000015 00000-0 -58878-7 0 5166 2 24305 82.9351 27.3451 0031567 104.0336 256.4331 13.73586434701315 TMSAT-1 (TO-31) 1 25396U 98043C 10245.16922040 -.00000014 00000-0 11441-4 0 7871 2 25396 98.3096 254.4026 0003269 34.4137 325.7251 14.23810944631198 TECHSAT 1B (GO-32) 1 25397U 98043D 10244.03062938 -.00000010 00000-0 13535-4 0 2729 2 25397 98.3172 247.3125 0002091 64.5650 295.5739 14.23183941630836 SEDSAT 1 (SO-33) 1 25509U 98061B 10243.95335966 -.00000066 00000-0 -27827-4 0 7858 2 25509 31.4340 80.0593 0354362 232.3848 124.4111 14.28326219618890 PAN SAT (PO-34) 1 25520U 98064B 10245.14947612 .00000553 00000-0 17180-4 0 5683 2 25520 28.4581 174.7081 0005231 86.1630 273.9548 15.17646964655853 ISS (ZARYA) 1 25544U 98067A 10245.33282459 .00008587 00000-0 70426-4 0 8178 2 25544 51.6462 195.8761 0007868 324.1199 193.8657 15.71415552675600 SUNSAT (SO-35) 1 25636U 99008C 10245.10070930 .00000041 00000-0 19234-4 0 6984 2 25636 96.4847 328.6493 0146488 262.9597 95.4917 14.43512532606858 UOSAT 12 (UO-36) 1 25693U 99021A 10245.07939057 -.00000017 00000-0 17366-4 0 2920 2 25693 64.5581 198.1901 0041519 300.3385 59.3616 14.78816229613184 OPAL (OO-38) 1 26063U 00004C 10244.16592100 -.00000003 00000-0 19072-4 0 8903 2 26063 100.2054 116.8322 0037308 100.1369 260.4016 14.35904499555232 SAUDISAT 1A (SO-41) 1 26545U 00057A 10244.67016042 -.00000022 00000-0 16149-4 0 6178 2 26545 64.5567 197.0680 0034999 208.3884 151.5322 14.80724627536560 TIUNGSAT-1 (MO-46) 1 26548U 00057D 10244.33848829 .00000070 00000-0 26411-4 0 7851 2 26548 64.5543 155.1589 0027544 212.0557 147.8900 14.83539438537396 SAUDISAT 1B (SO-42) 1 26549U 00057E 10244.23105775 -.00000050 00000-0 12790-4 0 7075 2 26549 64.5564 217.5045 0039829 208.4668 151.4330 14.79575488536118 PHASE 3D (AO-40) 1 26609U 00072B 10241.29566402 -.00000202 00000-0 10000-3 0 4156 2 26609 9.1711 316.7577 7963385 343.3635 1.5045 1.25586937 45132 PCSAT (NO-44) 1 26931U 01043C 10244.88053794 -.00000235 00000-0 -59333-4 0 5472 2 26931 67.0532 6.3759 0005175 269.1383 90.9122 14.29607693465719 SAPPHIRE (NO-45) 1 26932U 01043D 10243.92090700 .00000172 00000-0 99293-4 0 5528 2 26932 67.0591 8.9453 0003710 259.1573 100.9114 14.29646180465624 IDEFIX & ARIANE 42P R/B 1 27422U 02021B 10244.71636808 .00000024 00000-0 26540-4 0 4242 2 27422 98.4812 317.7601 0012807 10.3988 349.7455 14.28566423432448 RUBIN-2 & SAFIR-M 1 27605U 02058A 10244.13066566 .00000036 00000-0 26911-4 0 2703 2 27605 64.5563 110.9204 0038322 44.0355 316.3801 14.72488728413862 SAUDISAT 1C (SO-50) 1 27607U 02058C 10244.12229826 .00000051 00000-0 29818-4 0 2586 2 27607 64.5572 125.8693 0039357 43.1579 317.2576 14.71570641413558 DTUSAT 1 27842U 03031C 10244.02684573 .00000047 00000-0 41864-4 0 9163 2 27842 98.7042 252.7602 0008708 296.7676 63.2620 14.21051369371951 CUTE-1 (CO-55) 1 27844U 03031E 10244.01494572 .00000042 00000-0 39583-4 0 9252 2 27844 98.7105 251.9057 0009541 318.4807 41.5640 14.20726363371854 AAU CUBESAT 1 27846U 03031G 10244.94188922 .00000049 00000-0 42653-4 0 8231 2 27846 98.7029 253.6523 0008861 292.9721 67.0505 14.21049608372083 CANX-1 1 27847U 03031H 10244.46388823 .00000045 00000-0 41057-4 0 8425 2 27847 98.7031 253.1658 0008952 295.7007 64.3253 14.21027941371962 CUBESAT XI-IV (CO-57) 1 27848U 03031J 10244.47825564 .00000060 00000-0 48297-4 0 8739 2 27848 98.7157 251.4707 0009630 321.6210 38.4286 14.20518064371875 MOZHAYETS 4 (RS-22) 1 27939U 03042A 10245.04387166 .00000053 00000-0 19007-4 0 5058 2 27939 97.8806 107.2264 0013402 171.9394 188.2035 14.63447213370198 ECHO (AO-51) 1 28375U 04025K 10244.47605718 .00000025 00000-0 20323-4 0 7635 2 28375 98.0681 233.6521 0082781 225.8616 133.5746 14.40696783324496 HAMSAT (VO-52) 1 28650U 05017B 10245.18268040 .00000478 00000-0 66583-4 0 5868 2 28650 97.6844 295.5847 0027790 26.7626 333.5225 14.81799950288098 UWE-1 1 28892U 05043C 10244.72461897 .00000145 00000-0 39513-4 0 7191 2 28892 97.9981 125.8441 0018353 47.1843 313.0894 14.59904554258263 SSETI EXPRESS (XO-53) 1 28894U 05043E 10244.24062070 .00000035 00000-0 16620-4 0 8553 2 28894 97.9976 125.5153 0018589 50.9890 309.2958 14.59748267258198 CUBESAT XI-V (CO-58) 1 28895U 05043F 10245.22391769 .00000074 00000-0 24815-4 0 6717 2 28895 98.0022 127.1032 0018880 46.4107 313.8642 14.59926616258223 NCUBE-2 1 28897U 05043H 10245.15794771 .00000157 00000-0 41998-4 0 2350 2 28897 98.0005 126.9315 0018255 46.7723 313.4993 14.60115548250515 PEHUENSAT 1 (PO-63) 1 29712U 07001D 10244.24439222 .00000913 00000-0 12368-3 0 3190 2 29712 97.7745 293.8243 0012852 280.7029 79.2778 14.81236428196745 CUTE-1.7+APD II (CO-65) 1 32785U 08021C 10244.20558890 .00000253 00000-0 38791-4 0 7725 2 32785 97.8898 308.0558 0015815 40.3199 319.9239 14.81706167126748 DELFI-C3 (DO-64) 1 32789U 08021G 10245.13900384 .00000420 00000-0 59097-4 0 7741 2 32789 97.8940 309.5213 0016365 37.4973 322.7444 14.82281154126905 YUBILEINY (RS-30) 1 32953U 08025A 10245.23801891 .00000010 00000-0 00000+0 0 60 2 32953 82.5071 341.7671 0017680 296.1033 63.8236 12.43007537103310 PRISM 1 33493U 09002B 10245.20614690 .00000400 00000-0 58591-4 0 8134 2 33493 98.0935 5.3907 0018655 251.1645 108.7539 14.81081012 86880 STARS 1 33498U 09002G 10244.94977591 .00000194 00000-0 39363-4 0 1949 2 33498 98.0649 354.8333 0012821 2.0953 358.0312 14.71534921 86279 KKS-1 1 33499U 09002H 10244.32386304 .00000177 00000-0 37018-4 0 2024 2 33499 98.0665 353.7173 0010209 3.5665 356.5607 14.70836176 86144 ANDE CASTOR SPHERE 1 35694U 09038F 10230.44082147 .07179566 12689-4 99310-4 0 6559 2 35694 51.5930 222.0149 0004218 308.0851 53.0105 16.48877011 61107 SUMBANDILA (SO-67) 1 35870U 09049F 10245.22005453 .00000486 00000-0 24902-4 0 673 2 35870 97.3244 292.2909 0002899 158.4744 286.5464 15.21026373 53168 HOPE-1 (HO-68) 1 36122U 09072B 10245.09236518 -.00000045 00000-0 00000+0 0 6343 2 36122 100.4624 304.7187 0007479 158.9676 201.1745 13.16281698 34330